Theta_e
344 344 345 343 341 341 340 338 337 337 336 333 334 336 337 337 337 336 335 334 334 334 334 332 332 333 332 331 331 331 331 332 332 333 333 333 332 333 333 333 333 334 334 334 334 333 332 332 332 331 331 331 331 331 331 330 330 330 330 330 330 329 329 329 329 329 328 329 329 329 329 328 328 330 330 330 330 329 330 330 330 331 330 330 330
343 344 344 342 342 340 338 337 336 335 333 330 331 333 335 337 336 335 334 334 333 333 331 330 329 331 331 331 330 330 331 331 332 332 332 332 332 332 332 332 332 333 334 334 334 333 332 332 331 331 331 331 331 330 330 331 330 330 331 330 331 330 330 330 330 329 329 329 328 328 329 328 328 329 329 330 330 330 330 330 330 331 331 330 330
345 346 345 341 338 336 334 334 333 332 330 329 331 334 336 336 336 335 334 333 333 332 330 329 330 332 331 331 330 330 331 331 331 331 331 331 332 332 331 330 330 331 333 333 333 332 332 332 332 331 331 331 331 331 331 331 330 331 331 331 332 331 330 330 330 329 329 329 329 331 332 331 329 327 327 328 329 330 330 330 330 330 330 330 330
346 347 343 336 331 331 331 331 330 329 329 330 333 335 336 336 335 335 335 334 333 333 332 331 333 332 331 330 329 329 329 329 328 327 328 330 330 331 331 331 330 331 331 331 332 332 332 331 332 332 331 331 331 331 330 330 330 330 332 332 332 330 330 329 330 329 329 329 331 332 331 331 331 328 326 327 327 327 328 328 329 329 329 329 329
345 343 335 330 330 330 330 329 329 329 329 331 332 335 336 335 335 336 335 334 333 333 333 332 332 331 329 329 328 327 327 326 327 327 328 330 330 330 330 330 329 330 330 330 330 330 331 331 331 331 331 331 331 331 331 330 330 330 331 332 332 330 330 329 330 329 329 329 331 331 331 333 333 328 326 327 326 326 327 327 328 329 328 328 328
337 333 329 329 330 330 329 328 330 330 330 331 333 334 336 336 336 336 335 335 334 333 332 331 330 329 329 328 327 326 325 325 326 328 328 329 329 329 329 328 327 328 331 330 328 328 328 329 330 330 330 331 331 330 331 330 330 330 330 331 331 331 330 329 330 329 328 330 330 331 332 333 331 328 328 328 326 326 326 326 327 326 326 325 325
331 329 328 329 330 330 330 329 330 330 330 331 332 334 336 337 336 335 334 335 334 333 331 329 328 329 328 328 326 324 326 326 325 325 326 328 329 329 329 328 326 327 327 327 327 328 328 328 329 330 330 330 331 330 330 330 330 330 330 331 330 330 329 329 329 329 329 331 331 330 329 329 329 329 329 327 325 324 324 325 326 325 325 324 324
331 330 329 329 329 330 329 329 330 331 331 332 332 335 337 336 335 334 334 334 334 333 329 326 326 328 328 326 326 326 327 325 323 323 325 328 328 328 327 326 325 326 327 325 326 328 328 328 328 328 328 329 330 329 330 330 330 330 330 331 331 330 329 329 330 330 330 331 331 330 328 328 328 327 325 323 323 322 322 323 324 324 323 322 322
332 331 330 330 329 329 329 330 332 332 334 334 334 336 336 335 334 334 333 333 333 332 328 326 327 327 325 325 328 329 327 324 322 322 324 325 324 325 327 326 325 326 327 326 326 326 327 327 327 327 327 328 328 328 330 330 330 329 330 330 330 330 330 329 329 330 331 330 330 329 329 328 328 327 325 322 321 322 323 322 320 320 320 320 321
331 330 330 330 329 329 329 330 332 333 334 334 335 336 336 335 334 333 332 332 333 331 329 329 328 326 325 327 330 329 327 325 323 322 322 323 323 325 327 327 325 326 326 325 326 327 326 326 326 326 326 327 328 329 330 330 329 329 329 329 330 330 329 328 328 329 330 330 330 329 328 328 328 327 325 322 321 321 323 322 319 318 318 318 319
330 329 330 330 329 329 329 330 332 332 333 334 335 334 334 334 333 332 331 331 332 329 328 328 328 326 326 329 329 328 327 326 324 322 322 324 325 326 325 324 324 325 325 325 325 326 326 326 325 325 326 326 327 327 328 328 329 330 330 330 330 330 329 328 328 328 328 329 330 329 328 327 327 326 325 323 322 321 322 321 319 318 317 317 317
329 329 329 329 329 329 329 330 330 331 331 332 333 333 333 333 331 330 330 331 330 327 326 328 328 327 327 328 328 328 327 325 324 322 323 325 325 325 324 324 323 324 324 324 324 325 325 326 326 325 325 325 325 325 326 327 329 331 331 330 330 329 328 328 328 327 327 328 328 328 328 328 327 326 324 323 322 320 321 320 318 318 317 317 317
328 328 328 328 329 329 329 330 330 331 331 332 333 332 332 331 330 330 330 329 328 326 327 327 327 326 327 328 328 327 326 325 323 322 324 325 324 325 326 324 324 324 324 323 323 324 325 325 324 324 324 324 324 325 325 327 328 329 330 329 328 327 327 328 327 327 326 326 326 327 327 327 327 326 324 323 322 320 320 319 317 317 317 317 317
329 328 328 328 328 328 328 329 330 330 330 331 332 331 331 332 331 330 330 329 327 326 327 326 325 327 328 328 328 327 326 324 323 322 324 324 324 325 325 324 324 324 324 322 322 324 325 325 324 324 324 323 323 324 325 326 327 328 328 328 327 327 327 327 326 325 325 325 325 325 325 326 326 326 324 323 323 322 320 318 316 316 315 315 314
331 329 329 328 327 327 328 328 329 330 330 330 330 330 331 332 331 330 329 328 327 326 326 326 327 327 328 328 328 327 326 325 324 323 324 324 324 324 323 323 324 324 323 322 323 324 324 324 323 323 323 323 322 323 325 325 326 327 327 327 327 326 326 326 326 326 325 324 324 324 324 325 325 326 324 323 324 322 320 317 315 315 315 313 311
333 331 330 329 328 327 327 328 329 330 331 331 330 330 330 330 330 330 328 327 327 326 327 327 327 327 328 329 327 326 326 325 325 324 324 323 323 323 323 323 324 323 322 322 324 323 322 323 323 322 321 321 322 322 323 323 324 326 326 326 326 325 324 323 323 324 324 324 323 323 323 323 323 324 323 323 323 323 321 317 314 314 315 314 312
333 332 331 330 331 330 329 329 330 331 332 331 331 330 329 329 329 329 329 328 328 327 327 328 327 328 329 329 328 327 326 325 324 324 323 322 322 323 323 323 324 323 321 322 324 323 322 322 321 320 320 321 320 320 320 321 322 323 324 324 323 323 320 318 317 317 318 319 319 320 321 321 320 320 320 322 321 322 321 317 313 313 314 314 314
331 330 330 329 331 332 330 329 329 330 331 330 330 330 329 329 329 328 328 328 328 328 328 327 327 328 329 329 328 327 325 325 324 323 322 322 322 322 323 323 323 321 321 322 323 322 320 320 320 320 321 321 320 319 319 318 319 320 321 320 320 319 317 315 315 315 315 315 315 316 317 317 316 316 317 318 318 318 318 316 314 314 313 312 312
329 328 327 328 329 329 329 328 327 328 329 329 330 330 330 330 329 328 328 328 329 329 328 328 328 329 329 329 328 327 325 324 324 324 323 322 322 322 322 322 320 319 320 320 320 318 318 318 318 319 320 320 319 318 318 318 317 317 317 317 317 316 316 317 317 317 316 315 315 314 315 315 315 315 315 316 316 316 317 316 316 315 313 311 310
329 327 327 327 328 328 327 325 325 326 327 328 330 330 330 330 329 329 329 329 330 330 329 329 328 329 329 329 328 327 325 324 324 324 323 322 321 322 322 321 319 319 319 319 317 316 315 315 316 316 318 319 318 317 317 316 316 315 315 316 315 316 317 318 318 317 316 315 315 316 317 316 316 316 316 316 316 316 316 317 317 315 313 312 310
329 328 328 327 328 328 327 325 325 325 327 328 329 330 329 330 330 330 331 331 331 331 330 329 328 328 329 329 327 326 324 324 323 322 322 321 320 321 321 319 319 318 318 317 316 315 314 313 314 315 315 316 315 314 314 314 314 315 315 315 315 316 318 318 317 316 316 316 317 317 317 316 316 316 316 316 315 316 316 316 316 315 313 311 312
330 329 328 326 327 327 326 325 325 325 326 327 328 329 329 329 329 329 330 331 331 332 331 330 329 328 328 328 327 325 324 323 322 321 321 320 320 320 320 319 318 317 316 316 316 315 314 313 313 313 314 314 313 313 313 313 313 313 314 314 315 317 318 318 317 317 316 317 317 316 316 316 315 315 316 315 315 315 315 316 315 315 314 313 313
329 328 327 326 326 326 326 326 325 325 325 327 328 329 329 328 329 329 329 330 331 331 330 330 330 328 328 328 326 325 324 323 323 322 322 320 319 320 319 318 318 316 316 316 316 315 314 314 313 313 313 313 313 313 313 312 312 313 314 314 315 317 317 317 317 317 316 317 316 316 316 315 315 315 315 315 315 316 316 315 315 315 315 314 314
330 328 326 325 324 324 325 325 326 326 326 326 327 328 329 329 329 329 328 329 330 329 329 329 329 329 328 327 326 326 326 325 324 323 321 319 318 319 318 317 317 316 315 316 315 315 315 314 313 313 313 313 314 315 314 312 313 315 315 314 315 316 317 316 316 316 316 316 316 316 315 315 315 315 315 316 316 315 315 315 315 315 315 314 314
330 329 327 325 324 324 325 326 326 326 327 326 325 326 329 329 329 327 327 327 328 328 328 327 327 327 328 327 326 326 326 325 324 324 320 317 317 318 317 318 317 315 315 316 315 314 314 315 314 313 313 314 314 315 315 314 315 316 315 315 316 316 316 316 316 316 315 315 315 315 315 315 314 314 315 316 316 316 315 315 315 315 315 315 314
327 328 327 326 325 324 324 325 325 325 326 327 326 326 327 327 326 327 326 326 326 326 327 327 327 327 327 326 325 326 326 326 325 324 320 317 318 318 318 319 318 316 316 316 314 314 315 315 315 314 314 314 314 315 315 315 316 316 315 315 315 315 315 315 315 315 315 314 314 313 314 314 314 314 314 315 315 316 316 315 315 315 315 314 315
324 324 324 324 325 324 324 324 324 324 325 324 323 324 326 326 325 324 326 326 325 325 325 325 326 326 326 325 324 324 324 325 326 324 321 318 318 319 318 320 319 318 318 317 314 313 315 315 315 315 314 315 315 315 314 315 315 316 315 315 315 315 315 315 314 315 315 315 314 313 312 313 314 314 314 314 315 316 316 315 315 315 315 314 314
315 313 314 315 318 321 321 321 321 321 322 322 322 322 322 323 323 323 324 324 323 323 323 323 323 324 325 325 324 324 325 325 325 325 323 321 321 321 319 319 320 319 319 320 316 315 316 315 314 315 315 315 315 315 314 315 314 315 315 315 315 315 316 315 314 315 315 315 316 315 313 314 315 315 315 315 315 315 316 316 315 315 315 315 315
308 307 307 308 309 310 312 312 311 311 313 316 320 322 322 322 323 323 323 324 323 323 323 323 323 324 324 323 322 324 325 324 324 326 325 324 324 323 320 320 321 319 318 320 318 317 317 317 315 315 315 315 315 315 315 315 315 315 315 315 315 315 316 316 315 315 315 316 316 316 315 315 316 316 316 316 315 315 316 316 315 315 315 315 315
307 306 306 306 305 305 305 305 305 305 305 307 311 316 318 319 322 322 323 323 322 323 323 322 322 322 322 321 321 323 324 324 324 325 326 326 325 325 323 322 322 321 319 319 318 317 317 317 317 317 317 316 315 315 315 315 316 316 316 316 316 316 315 316 317 316 316 316 317 317 316 316 317 317 317 317 316 315 315 315 316 316 315 315 315
306 306 305 305 304 303 303 303 303 303 304 304 305 307 308 310 314 318 322 323 322 323 323 322 322 323 323 322 322 323 324 324 325 325 325 325 325 325 325 323 323 322 320 319 319 319 318 317 317 318 318 317 315 314 315 315 315 316 316 316 316 316 316 317 317 317 316 316 316 317 318 317 317 317 318 318 317 316 315 316 316 316 316 315 315
305 305 304 303 303 302 302 302 302 302 302 303 304 305 305 305 307 312 317 318 316 316 316 315 317 319 321 323 324 324 324 324 324 324 324 324 325 325 325 324 323 323 322 321 321 320 320 320 319 318 319 318 316 315 315 315 315 315 316 316 316 317 317 317 318 318 318 318 317 317 318 318 318 318 317 317 317 317 316 316 316 316 316 315 315
304 303 302 302 302 302 301 301 301 301 301 301 302 303 304 304 305 307 309 310 309 309 309 308 309 310 312 316 319 321 323 323 323 323 323 323 323 323 324 324 323 323 323 322 321 321 321 321 321 320 319 319 318 317 317 317 316 315 316 317 317 318 318 318 319 320 319 320 319 318 318 319 318 318 318 318 318 318 318 317 316 316 316 315 314
302 302 302 301 301 301 301 300 300 300 300 301 301 302 303 303 304 305 306 306 306 307 307 307 307 307 307 308 310 313 315 317 320 321 322 323 322 323 324 324 323 323 323 323 323 322 321 321 322 321 320 320 319 318 318 318 317 316 316 317 319 321 321 320 320 321 321 320 320 320 320 320 319 319 318 318 318 318 318 318 317 316 315 314 314
301 301 300 300 301 301 301 300 299 299 300 301 301 302 302 302 302 303 305 305 305 305 306 306 306 307 307 307 307 308 308 310 312 314 316 318 320 322 324 324 324 324 323 324 324 324 323 323 322 322 321 321 320 320 320 319 318 318 318 317 319 321 323 322 322 322 321 320 319 319 320 320 320 319 318 317 317 318 317 318 318 317 315 313 313
301 301 300 300 300 300 300 300 300 301 302 301 300 300 301 301 301 302 303 304 304 304 304 304 304 305 305 305 306 306 307 307 308 309 310 312 314 316 319 321 323 323 323 324 323 323 324 324 323 323 322 322 321 321 320 320 320 319 318 317 318 319 321 322 321 321 321 321 320 319 319 320 321 319 318 317 316 317 317 317 318 316 314 313 312
300 300 300 300 300 299 299 300 301 302 302 302 301 300 300 300 300 302 303 303 303 303 303 303 303 304 304 304 304 304 304 305 305 307 308 309 310 311 312 314 317 318 320 321 322 323 323 323 323 323 323 322 322 321 321 320 320 319 318 318 317 317 319 320 320 320 320 320 320 319 318 320 319 318 318 317 316 316 317 317 317 315 313 311 311
299 299 300 300 300 300 299 300 300 300 301 301 301 300 299 300 300 302 303 303 302 302 302 302 302 302 302 302 302 302 302 303 304 305 305 307 308 309 310 311 311 312 314 316 317 320 321 322 322 322 322 321 321 321 320 320 319 319 320 320 318 318 319 319 319 319 319 319 319 319 318 318 317 317 316 317 317 317 317 317 317 315 311 309 308
299 300 300 300 300 301 301 300 300 300 300 300 300 299 300 301 301 302 302 302 302 301 301 301 301 301 301 301 301 301 301 302 302 303 303 304 305 306 307 309 310 310 310 311 312 314 317 319 320 320 320 321 320 320 320 320 320 320 320 321 320 319 320 320 318 318 318 317 318 318 317 317 317 316 316 317 317 317 317 317 316 313 310 309 308
300 301 301 301 301 301 301 301 300 300 301 301 301 301 301 302 301 302 302 301 301 300 300 300 300 300 300 300 300 301 301 301 301 302 302 303 303 303 304 304 305 306 307 308 310 311 313 314 316 318 319 320 320 320 320 320 319 320 320 320 320 320 320 320 318 317 317 317 317 317 317 317 317 316 316 317 318 317 317 316 314 312 311 310 309
300 300 300 301 301 301 301 301 300 301 301 301 301 302 301 301 302 302 301 301 300 300 300 300 300 300 300 300 300 300 300 300 301 301 301 302 302 302 302 303 303 303 304 305 307 309 310 311 312 315 317 318 319 320 319 319 319 319 319 320 320 320 319 319 318 317 317 316 316 316 317 317 317 316 316 317 317 317 316 314 312 312 312 311 310
299 298 299 300 300 301 301 301 301 301 301 301 301 301 301 301 302 302 301 301 301 301 301 301 300 300 301 300 300 300 300 300 300 300 301 301 301 301 302 302 302 303 303 303 304 305 306 307 309 310 312 316 318 319 320 320 319 319 319 319 320 320 319 318 318 317 317 316 316 316 316 317 317 317 317 317 316 315 314 313 312 312 311 310 310
299 298 298 299 300 300 301 301 301 301 301 301 301 301 301 301 301 301 300 301 301 301 300 300 300 300 300 300 300 300 300 300 300 300 300 300 300 301 301 301 301 302 302 303 304 304 304 306 307 308 310 313 316 318 319 319 319 318 318 318 319 319 318 317 317 316 316 316 315 314 314 314 315 316 316 315 315 314 312 312 312 311 310 309 308
299 299 299 299 300 300 301 301 301 301 301 301 301 301 301 301 301 300 300 300 300 300 300 300 300 299 299 299 299 299 299 299 299 300 299 300 300 300 300 300 300 300 301 301 302 303 304 305 306 307 309 312 315 318 319 318 317 317 317 318 318 319 317 317 316 315 314 314 313 310 310 312 314 315 315 313 312 311 310 309 309 308 308 307 306
300 299 299 299 300 300 301 301 301 301 301 301 301 301 301 300 300 300 300 300 300 299 299 299 299 299 299 299 299 299 299 299 299 299 299 299 299 299 300 300 300 300 300 300 301 302 302 303 304 305 307 310 314 317 318 318 318 317 316 317 317 318 317 316 315 313 312 312 311 309 308 310 312 312 310 309 308 308 308 307 306 306 305 304 304
300 299 299 299 300 300 300 300 300 301 301 300 301 300 300 300 300 299 299 299 299 299 299 298 298 299 298 298 298 298 298 298 298 298 298 298 299 299 299 299 299 299 299 300 301 302 301 301 302 303 303 307 312 317 317 318 318 317 315 314 315 317 317 315 312 310 309 310 310 308 307 307 307 307 307 307 306 306 305 304 304 303 302 302 301
300 299 299 299 300 300 300 300 300 300 300 300 300 300 300 300 299 299 299 299 298 298 298 298 298 298 298 298 298 298 298 298 297 297 297 297 297 298 298 298 298 298 299 299 299 300 300 300 300 301 301 304 310 316 317 317 316 316 314 313 314 315 315 313 311 309 308 309 308 306 305 305 304 304 305 305 304 303 303 302 301 301 301 301 300
299 299 298 299 300 300 300 300 300 300 300 299 300 300 299 299 299 299 298 298 298 298 297 297 297 297 297 297 297 297 297 297 296 297 297 297 297 297 297 297 298 298 298 298 298 298 298 299 299 300 300 301 306 310 313 314 315 315 314 314 313 313 313 312 311 308 307 306 305 303 302 302 302 302 302 302 302 301 301 300 299 299 300 300 300
298 298 298 299 299 299 299 299 299 299 300 299 299 299 299 299 298 298 298 298 297 297 297 297 297 297 297 297 296 296 296 295 295 296 296 296 296 296 296 297 297 297 297 297 297 297 298 298 299 300 300 301 302 304 307 310 312 313 314 313 311 310 310 311 310 309 306 303 301 300 300 300 300 300 301 301 300 300 299 298 299 299 299 299 299
298 298 298 299 299 299 299 299 299 299 299 299 299 299 299 298 298 298 297 297 297 297 296 296 296 296 296 296 296 295 295 295 295 295 295 295 296 296 296 296 296 296 297 297 297 297 297 298 299 299 301 302 303 304 305 307 310 311 311 311 309 308 308 308 307 307 305 301 298 298 299 299 300 301 301 300 299 299 299 299 299 299 299 299 298
297 298 298 299 299 299 299 299 299 299 299 299 299 298 298 298 298 297 297 296 296 296 296 296 296 296 296 296 295 295 295 295 295 295 295 295 295 295 295 295 296 296 296 296 296 297 297 298 299 299 300 302 304 306 306 308 309 310 309 309 308 307 307 307 305 303 301 298 297 298 299 300 301 301 300 298 298 299 299 299 298 298 298 298 297
Wind_Speed
11 17 21 24 27 31 33 31 28 26 22 23 24 22 25 25 23 25 24 24 26 25 24 23 23 22 21 21 19 17 15 15 16 15 14 12 10 9 7 5 4 5 5 6 5 6 7 7 7 8 9 9 8 8 7 6 6 7 6 6 7 8 9 7 8 12 15 13 11 12 13 12 11 12 14 12 11 11 11 12 11 10 10 10 10
10 12 16 22 26 27 26 23 24 22 21 23 22 22 26 24 23 27 26 25 25 23 22 22 22 22 21 21 19 17 16 17 18 17 14 12 11 10 7 4 4 4 3 4 5 5 5 6 7 6 7 7 6 6 6 5 6 7 7 8 8 10 10 8 8 9 10 11 9 10 11 12 13 12 11 7 8 9 10 11 10 10 10 10 10
10 9 12 16 17 15 14 18 24 25 26 26 24 25 26 24 25 27 27 26 25 23 22 22 21 18 18 19 18 18 17 17 16 15 13 12 11 10 8 5 4 4 4 3 4 4 4 6 7 7 8 8 7 7 7 6 8 8 7 9 10 11 10 8 8 6 8 11 8 5 5 7 10 12 10 5 6 7 9 10 8 9 10 10 10
11 9 9 14 25 26 19 22 32 31 27 25 25 26 25 25 26 26 26 26 26 24 24 23 19 16 18 19 17 18 17 15 13 11 11 12 11 10 8 6 5 4 5 6 4 3 4 5 7 8 9 9 9 8 8 8 9 9 9 9 10 12 11 9 8 7 8 11 6 2 3 4 4 7 10 4 5 6 7 9 9 9 11 10 10
9 11 15 18 23 26 23 26 31 30 29 28 29 29 27 27 26 24 24 24 24 23 23 21 20 20 22 22 20 20 18 16 14 12 13 13 12 11 10 9 6 5 5 6 6 5 4 4 6 8 9 9 9 8 8 8 8 9 10 9 9 10 10 11 9 7 8 7 4 4 3 2 2 9 10 3 2 4 5 9 10 10 11 11 12
12 16 17 16 18 22 25 26 27 27 29 32 32 29 27 26 24 22 22 22 22 21 20 21 22 24 25 24 23 22 19 17 16 15 14 14 13 11 11 10 9 9 9 8 7 5 4 4 4 6 7 7 7 7 7 7 8 9 10 9 8 8 9 12 12 10 8 5 4 4 1 2 8 12 8 1 2 4 5 9 11 12 13 13 15
14 15 16 16 17 20 20 20 20 20 20 24 26 25 25 25 24 24 24 23 22 20 20 22 23 23 22 22 22 20 19 16 14 14 15 15 14 12 12 10 9 9 9 8 6 4 4 3 3 4 5 6 6 6 6 6 7 9 10 10 9 8 9 12 14 13 11 6 4 3 2 6 13 13 8 5 4 3 5 9 10 12 13 13 15
13 13 15 15 17 20 19 19 22 22 22 22 22 22 23 27 29 29 29 26 24 24 24 23 23 22 20 21 19 16 16 15 13 14 15 15 14 12 11 9 8 8 6 6 7 6 5 4 3 2 2 6 5 3 5 6 6 7 9 10 9 8 9 10 14 15 12 8 7 6 7 10 13 13 14 13 7 3 4 6 8 10 11 12 14
14 14 14 13 18 22 24 27 29 31 32 29 27 26 26 29 32 32 31 30 28 28 27 25 23 22 21 21 19 16 16 16 15 15 15 13 11 11 11 10 10 8 7 7 8 7 6 5 5 5 2 7 7 3 4 5 6 7 8 9 8 7 8 8 11 15 13 11 10 10 11 12 13 14 17 17 11 7 5 4 8 12 12 13 15
13 14 13 16 22 25 29 35 35 37 39 38 33 28 29 33 35 36 34 33 32 31 30 27 25 24 23 23 21 20 19 17 15 14 13 11 10 11 11 10 10 9 7 8 8 7 7 6 6 7 7 9 8 6 6 5 7 8 8 10 8 7 8 9 11 15 13 13 14 14 14 14 12 11 14 16 11 8 7 6 10 13 12 13 16
11 12 12 17 23 24 27 30 31 32 36 40 36 29 28 30 32 33 34 35 35 34 32 29 27 26 25 25 24 22 20 17 15 14 13 11 11 11 10 8 9 9 7 7 7 7 7 7 7 9 11 10 8 6 5 5 8 10 9 10 10 8 10 11 12 14 13 15 16 15 17 16 13 11 14 17 13 10 8 6 9 14 14 14 16
11 11 10 13 16 18 20 21 24 25 27 35 36 30 27 23 20 22 26 31 35 34 32 30 28 27 26 26 26 23 21 18 17 16 14 12 11 11 10 10 10 9 7 7 7 6 6 8 8 9 11 10 8 7 6 6 8 10 10 10 11 10 11 12 13 13 13 15 15 15 16 16 15 15 17 18 17 17 14 8 10 15 13 12 16
11 10 9 9 10 14 16 19 24 24 24 33 36 32 27 21 18 20 22 27 32 32 31 30 28 27 26 27 26 24 22 20 18 17 15 13 12 12 13 12 12 11 10 8 7 6 6 7 8 9 10 10 9 8 8 8 8 9 10 11 13 13 12 12 13 13 12 12 13 14 16 16 15 17 18 19 20 22 19 12 13 15 11 10 15
13 11 9 7 9 15 18 20 21 17 14 23 33 32 29 24 22 22 21 23 29 30 30 29 28 27 26 26 25 24 23 20 18 17 16 14 13 13 13 13 13 13 12 10 8 7 8 8 8 9 9 10 10 8 9 10 10 10 10 11 14 15 14 13 14 14 12 12 13 14 15 16 17 18 20 21 20 21 21 17 14 11 11 13 13
12 12 11 9 10 15 16 14 15 12 6 13 24 28 30 29 26 25 23 22 25 26 26 27 26 24 24 24 24 23 22 20 18 17 17 15 13 12 13 14 15 16 14 12 9 9 11 11 9 8 10 11 11 10 12 13 11 11 12 14 15 16 14 14 14 14 13 12 12 14 15 16 17 19 21 20 19 20 22 22 19 11 7 8 9
9 11 12 10 11 12 13 15 15 16 15 15 18 20 23 25 25 25 24 23 24 23 23 23 22 21 21 22 22 21 20 20 19 17 17 15 12 12 15 17 18 16 14 13 11 10 12 11 9 10 10 9 10 12 14 13 12 14 15 15 16 15 14 13 12 12 12 11 10 12 14 15 16 16 17 17 17 19 19 22 24 19 10 5 4
8 8 8 8 9 10 14 17 17 19 21 20 19 19 19 21 25 25 24 23 23 21 20 20 18 18 19 19 19 20 20 20 20 18 17 15 13 14 17 18 17 15 13 13 12 11 12 11 11 11 9 9 11 12 12 12 12 14 15 15 15 15 15 15 13 14 16 16 15 14 14 15 13 12 13 14 14 15 16 20 25 26 19 9 4
10 9 9 6 6 11 15 17 17 20 22 20 21 21 20 20 23 24 22 21 22 21 19 18 16 15 16 18 19 19 20 20 20 18 17 16 15 15 17 17 15 13 13 14 13 12 12 12 13 12 11 12 13 12 12 11 10 12 14 15 15 15 15 14 13 15 18 19 20 19 18 16 14 14 16 18 17 16 14 14 20 26 26 17 11
10 10 8 3 4 12 16 16 17 18 18 19 20 20 18 17 17 20 21 21 21 21 19 17 16 14 14 18 19 19 20 21 20 18 17 17 16 16 17 16 14 14 15 16 15 14 13 14 15 13 12 13 12 12 12 10 10 12 14 14 14 15 15 14 14 15 16 17 19 19 18 17 15 16 20 21 20 19 18 15 13 22 27 25 22
7 8 7 3 5 13 17 17 17 14 12 13 15 17 17 16 16 19 20 20 20 19 18 17 16 14 15 18 18 17 20 21 21 19 17 17 16 16 16 15 15 16 17 17 15 15 15 15 15 13 14 15 13 12 12 11 12 12 12 13 14 14 15 16 17 16 16 16 17 17 16 16 16 17 19 19 18 17 17 17 14 18 25 25 25
6 7 6 6 10 16 18 18 17 15 13 13 13 14 15 15 17 18 19 20 20 19 19 19 18 16 16 18 17 17 20 21 20 18 17 17 16 16 16 15 16 17 17 17 16 15 15 15 14 14 15 16 14 12 13 13 14 13 12 13 14 15 16 17 17 17 17 16 16 16 16 15 16 17 16 14 14 15 18 18 16 18 23 21 19
7 7 8 8 13 17 17 17 16 16 17 17 14 13 14 14 15 14 16 18 19 19 19 18 18 17 17 18 17 17 19 19 18 17 17 17 16 16 15 15 17 17 17 17 15 14 15 14 14 14 14 15 14 14 14 14 15 15 14 15 15 16 17 17 18 18 18 17 17 17 15 14 14 15 14 11 11 14 17 19 18 17 18 16 14
9 8 8 10 14 17 17 16 16 16 17 16 13 11 14 16 15 14 16 16 16 16 16 15 16 16 17 18 19 18 18 18 17 17 17 17 17 16 15 16 16 15 16 16 14 13 13 13 14 14 13 14 14 13 13 15 15 14 15 16 16 15 17 18 19 18 17 17 17 16 15 14 14 15 14 12 13 16 16 17 17 17 17 15 13
8 8 8 10 14 16 16 16 15 15 14 13 12 13 17 18 16 15 16 14 12 12 12 11 15 18 18 19 20 20 18 18 17 15 16 18 17 16 15 15 15 14 14 14 14 12 12 13 15 14 13 14 14 12 14 16 14 12 17 20 18 16 18 19 19 17 16 15 16 15 14 14 16 18 18 15 14 14 13 12 13 13 15 15 13
8 8 7 8 9 10 13 14 13 12 14 15 15 16 18 17 16 15 14 13 11 11 11 9 10 14 18 20 21 19 17 17 16 13 15 17 15 15 15 14 13 13 12 12 14 12 11 14 15 13 14 15 14 12 15 16 13 13 19 21 19 18 19 19 17 16 15 15 15 15 14 14 15 16 16 14 12 11 10 10 9 9 12 14 13
9 9 8 8 8 10 11 11 11 10 12 16 17 16 15 14 13 13 12 11 10 9 11 12 10 8 8 10 12 12 11 13 14 12 14 16 14 14 15 13 12 12 10 11 13 12 11 13 13 13 15 15 14 13 16 17 15 14 18 20 19 17 17 18 18 16 15 14 13 14 15 15 14 13 13 11 11 11 11 11 10 9 10 11 11
11 11 10 8 7 9 10 11 10 7 9 16 19 16 15 15 14 12 11 11 10 9 11 13 12 8 5 4 6 10 11 11 11 13 15 15 14 14 14 12 11 11 10 10 12 11 11 12 12 13 15 14 13 14 16 17 17 16 17 18 18 16 14 16 18 16 15 14 13 14 15 14 13 12 11 12 12 12 13 13 12 11 10 9 8
14 15 14 12 9 9 11 14 14 11 11 15 17 16 18 19 15 13 12 12 11 10 12 12 10 9 9 9 11 15 14 9 8 11 13 13 13 13 13 12 11 12 10 9 11 10 10 11 10 11 15 15 14 15 17 17 17 17 17 18 18 16 14 15 17 16 15 14 13 12 12 12 13 12 12 13 14 13 13 14 13 12 10 10 9
16 16 15 14 12 12 15 18 19 19 20 17 13 15 19 18 15 15 16 16 16 16 16 15 13 12 11 11 12 14 14 10 8 10 11 11 11 11 12 11 10 12 12 9 10 10 8 9 9 9 13 16 15 16 18 17 16 17 17 17 18 18 16 16 16 16 16 15 14 14 13 14 14 13 13 13 13 13 12 11 11 12 12 11 10
15 14 14 13 13 15 18 20 22 24 26 26 21 17 17 15 13 16 20 19 19 19 18 15 15 14 13 13 12 12 13 10 8 8 8 8 9 9 11 10 8 10 12 11 10 10 9 9 10 8 10 16 18 17 18 18 16 17 18 17 17 18 17 17 16 17 17 17 17 16 15 16 16 15 14 14 13 12 11 11 10 11 13 13 12
14 13 13 12 13 16 19 20 22 24 25 26 26 26 25 23 18 14 17 19 18 19 18 16 15 13 12 11 8 7 7 5 5 6 6 5 6 7 10 11 9 7 10 11 11 10 9 10 12 11 9 13 18 20 19 19 18 18 19 19 18 17 17 16 16 17 18 19 19 18 17 18 18 17 16 15 14 13 12 12 12 12 13 14 14
12 12 12 12 13 15 17 19 21 23 25 25 26 28 29 30 30 23 17 19 22 24 22 19 17 15 12 10 9 8 6 3 2 2 2 2 4 6 7 10 10 7 6 8 10 11 10 10 12 14 12 12 15 18 19 19 20 20 19 20 19 18 17 17 17 17 18 20 21 21 19 19 18 17 17 16 15 14 14 15 15 13 13 13 13
11 10 10 11 11 13 16 19 20 22 24 25 27 28 27 28 32 32 28 27 29 29 30 29 28 27 23 16 11 10 7 5 3 3 3 1 4 6 5 7 9 8 7 7 9 11 12 11 11 13 14 14 14 15 16 16 19 20 19 19 19 18 18 19 18 18 19 21 22 21 20 19 19 18 17 17 16 16 16 16 16 16 14 13 12
9 9 9 10 11 14 17 21 22 22 23 26 29 29 28 28 30 31 30 28 29 29 29 29 28 28 28 24 20 16 13 8 6 5 5 5 7 6 5 5 6 8 9 10 10 12 14 14 14 14 15 17 17 17 16 16 18 19 19 18 17 15 16 19 20 18 19 20 21 20 19 19 19 19 18 18 18 18 18 17 17 18 17 15 14
8 8 9 11 14 17 19 22 24 24 25 28 30 29 29 30 29 29 29 28 28 28 28 27 26 24 24 24 24 23 21 19 15 12 8 4 1 3 4 5 5 6 7 9 10 11 13 15 17 17 18 20 21 21 21 20 20 20 20 20 18 15 13 16 19 20 19 18 19 21 22 21 21 20 19 19 19 20 20 18 18 19 18 16 15
8 9 9 12 15 17 18 19 22 24 26 27 27 26 27 28 27 27 27 26 26 27 26 26 25 22 21 22 22 21 20 20 19 19 18 16 13 9 5 4 6 6 7 8 9 10 12 14 15 17 18 20 22 22 23 23 23 24 24 24 23 20 17 16 16 18 20 21 20 21 23 24 24 23 22 22 22 22 21 18 18 19 19 17 15
10 11 11 12 14 15 16 18 19 21 20 20 21 23 24 24 24 25 24 23 23 24 23 22 22 20 18 18 18 19 19 19 18 18 18 17 16 14 13 11 9 8 8 9 10 12 13 13 14 16 17 19 21 22 23 23 24 24 26 26 27 26 23 19 16 16 19 20 21 21 22 23 23 24 24 25 25 23 21 18 18 17 16 15 13
12 12 12 12 12 13 15 17 18 17 15 14 16 18 20 20 20 20 20 19 19 19 18 17 18 17 16 15 15 16 17 18 17 17 17 17 16 15 14 14 13 13 12 11 12 13 15 15 16 18 18 19 20 20 20 22 23 24 26 27 28 28 25 21 18 18 18 19 20 22 23 22 22 23 26 26 24 23 21 18 16 16 16 15 14
11 11 11 11 11 11 11 12 12 12 11 11 12 13 14 15 15 15 16 16 17 17 16 16 15 15 15 14 15 15 17 18 19 19 18 18 17 17 16 16 16 16 15 15 16 15 15 17 18 20 21 21 20 19 19 21 22 23 25 27 28 29 27 23 20 20 19 18 18 21 23 23 24 26 27 25 22 22 20 17 17 18 18 17 14
7 6 7 8 8 7 7 8 10 10 9 8 8 9 10 11 12 13 14 15 15 15 14 14 15 15 16 16 17 17 18 19 20 20 20 19 19 19 19 20 19 20 20 20 20 19 19 19 19 20 22 24 23 22 20 21 22 23 25 27 28 28 29 28 24 22 21 21 22 22 23 24 26 28 27 23 20 19 17 16 18 19 17 15 13
8 7 6 5 5 6 7 8 8 9 8 7 7 8 10 10 10 12 13 13 13 12 13 14 15 16 17 18 18 18 19 20 21 21 21 21 20 20 20 21 22 22 23 23 23 23 23 23 21 20 20 22 25 25 23 21 22 23 25 27 27 28 29 29 26 25 25 25 24 23 23 25 28 29 26 23 20 19 17 17 18 17 15 15 14
10 10 10 7 7 9 9 8 7 7 6 6 6 7 8 8 8 10 11 11 11 11 11 13 14 15 16 17 18 18 19 20 20 21 22 23 22 22 21 21 22 23 24 25 25 25 26 26 26 24 23 23 24 25 24 22 22 23 25 26 28 28 28 27 26 26 26 26 26 26 25 26 27 27 24 22 21 21 20 19 19 18 16 15 14
11 10 9 9 9 8 7 7 7 6 4 4 4 4 5 5 5 8 10 11 10 11 11 12 13 14 15 16 17 18 19 20 20 20 21 22 23 23 23 23 23 23 24 24 25 25 25 26 26 26 26 26 24 25 25 23 22 23 25 26 27 27 26 25 26 26 26 26 26 24 22 21 22 22 22 22 22 22 20 18 18 18 17 15 15
12 10 7 7 7 6 6 6 5 2 2 1 1 0 2 3 4 7 10 10 11 12 12 13 14 15 15 17 18 19 19 20 21 21 22 23 23 24 24 24 24 25 25 25 25 24 23 24 25 26 27 26 24 25 25 24 23 24 26 27 25 24 24 24 24 25 26 27 24 20 18 19 21 22 22 22 22 21 20 19 20 19 17 16 15
10 9 7 6 5 4 6 5 2 2 2 3 2 1 4 8 9 11 13 13 14 14 14 15 15 16 17 18 19 20 20 21 22 23 23 24 24 24 25 25 25 25 25 25 25 24 21 20 21 23 25 24 24 24 24 25 24 24 26 27 24 21 23 25 22 21 23 25 22 19 21 23 24 23 23 23 23 22 23 22 20 18 16 14 12
9 8 6 6 5 4 5 2 3 3 4 6 5 6 11 14 14 14 15 15 16 16 17 17 17 16 17 18 19 19 20 20 21 21 21 22 23 24 25 25 25 25 25 25 24 23 22 22 22 23 26 26 23 25 24 23 24 25 25 26 24 21 21 22 20 19 20 20 20 22 26 26 26 26 27 26 25 23 21 19 16 15 14 13 13
8 6 4 5 5 3 3 3 5 7 8 10 11 12 13 14 14 15 16 16 17 17 18 18 18 17 17 17 18 19 19 19 20 20 21 22 23 24 24 24 24 25 25 25 25 26 25 24 23 23 26 27 20 23 26 24 24 25 25 23 21 20 19 21 21 20 20 23 24 26 28 28 27 27 25 24 22 20 18 17 15 14 14 14 13
6 4 3 4 3 4 6 8 10 10 10 10 11 12 13 14 14 14 14 14 15 16 17 17 16 15 16 16 16 18 19 21 22 21 21 22 23 23 24 24 23 23 24 25 26 26 26 25 24 24 24 24 21 18 22 24 26 25 24 22 19 18 18 23 25 22 22 27 30 30 30 29 28 27 24 22 20 18 17 16 15 14 13 12 11
4 4 5 4 2 7 9 8 9 9 10 11 12 12 12 12 11 11 12 13 13 14 15 15 14 14 14 15 17 20 22 23 23 23 22 22 21 22 23 25 24 22 22 24 25 26 27 27 26 24 22 22 23 21 19 20 22 22 21 21 19 17 18 23 28 28 29 31 33 33 32 30 28 27 25 22 21 19 18 16 14 13 13 11 9
3 5 4 1 4 7 7 5 7 9 10 11 10 9 8 8 9 11 12 12 12 12 13 12 13 13 14 15 18 20 20 20 21 22 23 23 23 23 23 24 24 23 22 23 24 24 26 26 26 25 22 20 22 22 20 19 20 20 19 18 18 18 19 23 28 31 33 34 34 34 33 31 28 27 25 22 21 21 20 17 15 14 12 10 10
3 3 5 6 7 7 6 6 7 9 9 9 8 7 7 9 11 13 13 11 11 11 12 12 12 13 14 16 17 17 17 19 21 22 22 23 24 24 24 23 22 22 23 25 25 23 22 23 24 25 23 21 22 22 20 18 19 20 19 18 19 20 20 24 30 32 33 33 33 32 31 30 27 25 24 23 23 22 21 19 17 15 13 12 13
Wind_Direction
159 156 158 153 149 154 163 166 161 156 145 135 135 135 137 140 146 149 151 155 157 159 157 154 153 151 147 147 143 143 145 143 146 149 150 149 142 139 145 143 156 175 195 207 223 229 214 217 218 209 210 208 207 210 206 200 180 169 167 158 152 138 133 146 159 152 132 119 121 119 124 128 120 132 146 153 158 158 163 168 173 172 168 168 169
150 152 155 153 153 156 156 150 143 137 117 113 122 130 140 145 147 151 155 160 160 157 154 151 150 149 147 145 139 136 142 142 140 141 140 135 127 122 125 130 158 180 194 208 221 222 212 214 209 195 190 192 205 207 197 189 170 169 166 152 150 149 148 152 165 163 133 121 123 113 107 101 96 111 124 134 147 151 161 164 164 168 168 167 170
157 159 153 139 123 111 106 100 100 98 93 103 122 132 142 153 154 155 158 158 157 154 154 155 153 150 144 141 138 136 141 142 138 138 136 131 128 128 129 132 142 145 142 163 201 213 212 211 207 200 192 192 199 199 197 188 171 174 171 162 158 149 148 160 181 187 141 125 119 110 109 100 91 87 88 117 158 147 149 151 151 160 159 164 170
158 148 115 79 66 64 69 85 91 96 105 122 139 141 148 160 159 158 158 155 154 155 158 159 156 151 144 141 140 139 136 134 130 132 136 134 133 139 142 140 136 127 120 122 139 180 196 204 207 205 203 201 199 200 206 201 187 183 177 176 171 155 149 164 191 206 161 137 118 98 106 107 106 97 95 119 166 142 143 148 146 149 146 147 151
136 102 82 72 73 78 86 97 106 120 134 145 154 154 156 161 160 159 159 155 155 159 162 162 155 145 139 134 131 131 127 127 129 134 140 137 137 142 138 135 141 147 141 126 116 121 143 180 201 200 202 207 207 209 213 207 198 190 186 189 184 170 162 165 183 203 172 143 125 128 107 80 144 130 117 105 146 119 125 143 144 146 139 130 132
92 91 87 88 98 103 107 116 125 134 143 152 158 158 157 156 156 157 158 156 157 161 163 162 151 140 136 133 131 130 128 132 141 148 149 144 140 139 136 134 134 137 139 130 114 108 125 149 179 188 190 198 207 215 213 205 200 195 196 200 194 188 178 168 175 188 179 157 146 150 120 159 156 140 125 114 142 98 104 132 134 134 130 122 126
93 103 103 103 111 114 114 117 117 117 131 147 152 152 152 152 155 159 159 158 160 164 164 161 149 139 137 138 137 136 134 139 150 153 151 146 142 138 141 143 132 124 130 133 131 132 137 146 169 181 187 188 193 205 204 198 195 198 207 209 197 191 188 173 168 177 183 182 176 162 99 144 154 146 134 137 133 93 114 132 129 127 127 123 125
103 106 111 116 116 116 115 109 109 118 129 142 152 154 155 158 160 161 160 159 161 164 165 162 152 144 141 139 138 137 137 142 146 147 146 145 144 140 141 146 136 125 127 137 141 143 144 138 126 124 215 195 176 178 191 192 198 201 203 205 201 191 186 175 166 171 179 175 162 138 115 130 141 139 137 134 125 105 119 129 131 130 130 129 128
105 104 112 118 115 122 132 128 128 137 142 151 160 161 162 165 164 163 162 160 161 163 164 163 156 151 149 146 141 137 140 143 141 141 142 140 140 141 142 140 135 132 134 138 143 148 156 154 123 78 99 176 169 167 175 180 195 192 183 188 200 194 181 180 174 172 177 178 164 141 130 129 125 125 131 131 123 121 123 120 126 122 115 118 125
110 111 118 128 133 141 142 139 145 153 155 158 162 165 169 169 167 166 165 163 162 165 165 162 158 158 158 154 147 141 143 146 143 142 143 141 142 148 149 141 135 138 137 139 147 142 139 152 133 90 98 140 150 159 160 158 170 169 171 179 191 198 183 176 175 172 178 184 172 157 149 142 129 121 128 130 122 113 119 131 129 122 114 108 115
113 113 119 132 141 144 139 145 160 166 162 159 160 168 173 171 171 170 168 165 165 168 167 164 164 167 165 157 149 147 150 152 150 149 151 153 151 149 151 151 152 152 135 127 143 138 121 132 134 111 109 119 125 137 140 138 150 150 154 165 171 183 177 167 169 171 178 184 179 171 164 159 151 143 140 137 130 121 124 132 133 130 129 123 117
112 112 118 128 136 137 140 161 176 173 166 157 158 168 170 171 175 171 168 167 167 170 169 166 168 170 166 156 151 153 157 158 158 159 161 164 161 155 157 157 157 160 151 130 129 137 131 129 133 127 117 112 119 132 125 120 132 138 145 154 158 168 169 164 162 162 170 176 177 176 172 170 164 154 146 139 139 144 142 139 142 138 132 136 134
117 118 124 135 139 139 156 182 179 174 172 160 157 164 165 167 172 169 170 169 169 171 170 169 170 168 161 155 156 159 161 163 164 164 166 171 171 167 165 159 152 155 159 148 134 143 154 143 136 132 121 111 118 130 127 124 131 140 147 150 151 157 160 156 151 150 158 164 164 167 172 175 172 163 151 142 145 151 147 141 150 151 145 149 149
126 129 137 151 153 156 173 185 174 172 186 166 157 159 161 165 170 170 172 173 172 173 172 172 171 167 160 156 160 162 163 165 166 166 170 176 177 175 172 167 159 154 151 147 144 148 149 144 138 137 132 115 111 127 131 126 131 140 145 148 148 150 148 141 138 139 141 144 147 155 166 170 170 169 161 152 155 159 156 152 151 148 145 149 150
132 140 148 156 160 163 166 163 153 150 162 157 152 156 161 166 172 173 173 177 177 175 176 175 173 170 161 156 159 163 163 164 165 168 173 177 180 181 180 173 160 152 146 143 147 147 141 139 135 140 142 120 105 122 131 125 128 132 134 138 141 143 141 135 137 141 141 139 139 143 152 157 160 166 168 165 162 162 164 163 155 144 137 143 142
127 140 144 145 153 154 138 129 140 144 138 141 148 153 157 160 167 171 175 181 182 182 182 179 179 176 163 156 161 164 162 163 167 171 173 175 177 177 176 169 159 154 151 150 152 150 147 147 139 137 142 126 112 122 128 127 131 132 130 131 135 140 140 138 139 145 149 145 136 133 136 140 145 156 167 174 171 169 176 175 161 152 152 142 125
103 113 113 121 139 140 130 133 142 142 138 143 150 152 152 160 166 169 176 183 186 191 188 184 187 180 165 161 164 166 166 167 170 170 168 169 169 168 167 163 159 158 154 153 154 150 146 149 146 141 136 124 120 124 128 131 136 138 137 134 137 141 139 134 129 131 133 130 126 127 129 129 130 136 150 164 169 169 182 185 170 161 161 155 128
91 87 82 81 111 118 122 128 132 135 136 139 150 156 159 167 168 165 172 183 188 193 191 189 192 180 168 168 168 169 171 171 170 167 164 164 164 165 164 160 157 155 151 153 155 151 148 148 148 146 138 125 120 126 133 135 135 138 139 136 139 142 136 128 125 126 127 123 120 122 125 122 119 118 121 125 128 125 129 153 170 173 171 160 140
104 103 104 93 88 108 119 119 116 126 136 139 146 152 152 161 166 163 172 183 188 190 189 190 191 183 177 175 172 174 176 173 169 166 165 165 164 165 164 160 156 151 151 153 151 150 150 148 146 146 143 137 130 132 138 141 138 136 137 138 140 141 132 122 123 127 128 127 121 119 119 117 113 113 110 108 109 107 99 99 138 171 171 159 143
118 117 124 137 102 109 120 119 109 110 121 128 135 138 139 153 167 168 172 179 183 185 186 186 188 188 182 176 173 175 176 173 169 169 170 169 166 165 164 160 156 154 154 153 151 149 148 147 147 148 149 146 139 138 142 144 144 141 142 145 146 144 132 122 122 125 127 128 121 115 115 113 112 111 108 104 102 103 99 88 102 146 156 154 144
124 129 136 132 110 109 115 117 114 109 109 116 125 132 138 157 172 167 162 166 171 176 182 186 188 190 183 175 172 170 170 171 171 171 174 174 171 169 165 159 156 156 154 151 149 149 148 148 149 148 147 146 142 143 147 147 146 148 152 154 151 145 135 126 125 128 129 130 124 118 116 114 115 113 110 109 104 104 108 102 104 129 141 147 148
122 128 129 120 111 111 114 116 119 121 126 130 130 131 138 152 162 155 149 157 165 170 176 184 190 193 186 177 171 165 166 170 169 170 176 177 174 170 165 160 159 157 155 154 152 152 155 154 150 148 148 149 148 148 151 152 153 156 160 158 154 149 144 138 136 135 133 132 129 125 121 117 118 117 115 117 116 116 118 115 114 125 137 148 155
124 118 118 118 119 121 119 117 123 131 136 137 136 136 139 145 152 158 161 164 167 169 174 184 192 191 186 181 176 169 170 173 171 172 179 178 173 170 166 164 163 158 158 162 159 157 162 162 156 153 152 153 153 153 153 153 155 162 167 165 162 161 157 148 144 144 141 137 133 128 124 122 119 115 115 120 126 126 126 123 117 120 132 146 157
113 109 113 118 121 122 119 121 131 139 141 141 137 136 142 150 159 166 167 165 164 170 180 195 198 191 187 187 182 174 173 177 176 176 177 176 173 170 166 167 168 163 164 169 164 162 172 170 160 157 156 156 155 155 155 155 154 157 160 161 160 156 154 148 145 147 150 148 142 135 132 131 124 118 115 119 126 129 132 131 125 122 127 137 154
75 82 92 102 106 108 113 122 130 136 142 141 135 134 143 155 161 162 167 169 171 178 184 197 210 200 193 190 183 175 172 176 181 182 176 173 172 169 168 171 171 168 170 171 164 166 177 174 166 162 161 160 160 159 160 160 156 149 154 160 158 153 154 154 152 151 153 156 154 148 146 145 140 131 125 124 128 133 142 141 133 133 133 133 142
55 55 55 60 59 62 75 90 103 118 131 127 123 128 137 143 149 154 163 168 173 182 183 192 211 213 196 190 181 170 165 172 182 183 174 172 172 169 171 175 172 170 174 171 167 170 177 174 171 170 167 164 165 165 163 165 163 155 158 163 161 158 161 164 162 159 157 160 161 162 164 164 157 146 140 140 134 129 136 143 143 144 144 139 139
58 56 46 38 47 58 55 55 67 83 96 98 98 101 111 120 131 141 150 158 171 189 187 188 201 202 179 178 182 174 169 171 177 173 164 167 174 174 175 177 175 176 178 172 169 174 180 179 178 178 176 171 170 172 170 170 172 167 165 168 168 167 166 164 164 162 161 161 165 172 175 173 167 159 158 161 154 138 130 137 149 154 155 155 153
58 58 51 41 43 55 47 39 43 47 62 87 99 96 95 104 117 128 135 138 142 157 165 166 174 176 167 175 186 181 177 180 186 175 166 165 170 173 176 180 182 185 186 177 174 179 185 186 186 186 185 179 176 181 183 179 177 176 175 175 178 178 170 164 163 161 162 165 173 181 179 173 172 174 178 179 175 165 149 141 148 157 164 162 154
60 59 55 48 45 49 48 44 43 42 41 50 80 99 96 100 112 119 124 129 132 136 141 144 145 145 152 172 184 177 172 183 191 179 175 179 180 175 176 181 187 190 193 192 188 190 193 194 197 199 195 191 188 188 191 189 185 185 185 184 187 187 181 178 176 172 170 172 178 183 181 178 182 187 190 191 188 186 180 169 162 161 167 167 159
62 60 56 50 46 45 46 44 42 41 38 35 43 63 76 85 103 114 118 126 130 124 116 123 137 139 147 168 180 172 170 179 177 165 172 190 199 194 188 189 192 189 191 196 198 199 203 206 213 220 206 198 197 195 196 199 198 197 195 195 197 196 191 191 189 184 183 183 183 185 184 185 191 195 198 201 200 200 201 199 196 186 183 186 183
61 59 56 51 46 42 41 40 38 40 41 38 38 43 45 45 51 78 110 117 112 107 109 125 140 136 134 145 141 131 150 169 174 181 191 196 208 211 203 204 208 196 186 189 194 201 208 211 217 226 219 202 199 199 200 202 204 205 205 204 205 203 200 201 199 193 190 189 191 195 194 191 194 197 200 203 204 207 208 206 206 201 195 196 198
64 57 51 47 45 41 38 37 37 38 39 39 41 41 39 38 38 45 70 85 81 78 78 80 83 82 91 112 110 97 101 98 91 140 165 183 223 230 217 214 221 219 202 197 201 208 215 217 217 223 225 214 205 204 204 205 206 207 209 210 210 210 208 207 206 202 196 193 195 198 197 193 193 195 199 203 207 211 212 210 208 206 200 198 200
68 61 53 48 43 40 38 37 36 37 38 38 41 41 38 37 41 46 53 60 63 65 62 57 55 54 58 72 93 104 114 124 118 107 100 140 241 244 234 231 237 241 240 231 222 221 226 232 233 231 230 230 225 216 210 209 209 208 209 208 209 211 212 210 207 203 199 198 197 196 195 197 200 200 203 210 217 221 219 215 215 215 210 203 200
67 62 57 51 43 38 38 39 36 35 38 40 43 44 41 39 42 45 47 48 51 55 54 51 50 46 44 45 50 55 59 68 96 128 148 184 214 230 242 247 250 254 257 257 249 239 238 243 248 249 244 242 243 238 230 222 216 213 213 211 209 210 211 209 208 205 201 198 199 201 205 208 209 210 213 216 223 228 226 222 221 221 217 212 209
66 62 56 52 48 40 36 35 34 34 38 40 39 41 42 41 39 39 41 42 43 44 42 40 41 39 35 33 33 33 33 32 34 36 38 42 220 239 246 249 260 271 270 268 264 257 252 251 253 254 252 249 248 248 246 242 236 231 228 224 220 219 221 219 214 211 208 206 208 215 221 223 221 223 228 230 232 233 231 228 224 222 219 216 215
74 75 71 62 57 51 47 44 39 36 38 36 33 35 38 39 38 37 37 38 39 38 35 32 31 28 25 24 22 20 19 18 15 12 13 15 13 9 2 316 285 281 277 273 268 262 259 259 257 257 257 255 253 252 253 253 251 246 241 237 233 232 234 233 221 216 218 217 214 219 227 230 231 233 235 236 237 236 233 229 223 218 217 216 217
85 86 84 76 68 65 62 58 51 44 40 34 29 29 33 35 36 36 34 34 35 33 31 29 27 22 17 15 13 10 7 5 2 359 357 357 356 358 2 0 344 324 306 291 280 271 266 266 264 262 262 262 261 258 257 257 257 253 247 244 243 241 241 236 229 228 230 227 227 233 234 233 235 238 238 234 234 233 228 223 218 213 211 212 207
94 92 89 81 73 66 60 58 55 50 45 38 26 23 27 32 33 33 33 32 31 26 21 19 18 16 11 7 3 359 357 357 356 353 348 345 343 340 340 342 341 338 329 317 304 288 272 265 266 265 263 264 264 264 262 259 259 257 252 247 246 246 244 237 230 235 237 235 235 235 231 232 235 237 237 235 231 226 221 217 214 206 201 199 191
106 100 99 92 83 74 66 61 57 50 45 42 31 22 28 32 31 30 32 29 22 14 8 4 1 360 360 357 353 350 349 350 349 346 343 338 334 330 325 323 323 322 320 316 312 302 284 270 264 263 262 262 261 262 264 263 262 261 257 253 249 247 246 242 234 232 231 230 230 227 230 236 234 230 234 235 227 219 217 216 210 200 194 193 188
115 105 115 114 102 90 83 74 66 60 55 49 38 32 39 42 38 33 28 20 11 2 358 356 352 350 349 347 346 344 342 341 341 340 339 336 331 327 324 320 317 313 310 307 303 300 296 288 276 266 261 258 255 255 258 262 264 263 261 259 254 248 245 242 237 231 227 227 228 228 231 232 224 223 232 231 218 213 214 210 205 200 197 196 191
79 68 86 125 132 100 83 76 68 62 57 50 45 40 38 38 37 31 21 13 10 9 8 4 357 355 353 350 349 346 341 338 335 332 331 331 330 330 327 324 319 312 307 303 299 297 296 294 291 284 272 260 254 251 252 256 259 260 261 261 257 253 248 242 237 234 230 227 226 226 226 221 216 219 226 220 206 201 201 199 200 203 205 200 189
79 64 55 64 86 84 74 74 75 67 53 49 54 47 33 33 37 26 13 7 10 11 9 4 358 358 357 353 350 347 343 340 337 334 331 328 327 326 325 325 323 318 310 303 299 298 297 295 294 292 284 272 257 247 246 251 254 255 259 259 258 257 253 244 235 230 226 223 223 221 218 212 208 210 212 205 195 193 194 196 198 200 200 194 181
87 72 47 46 68 76 71 73 74 63 41 42 60 49 26 32 40 19 3 360 2 2 359 355 352 351 350 348 346 345 344 344 342 339 335 332 329 326 324 322 322 323 320 313 305 301 298 296 294 291 288 280 263 246 241 244 250 253 256 257 257 256 250 241 233 229 226 221 217 210 202 197 197 198 195 191 192 195 193 189 187 186 181 170 161
81 72 47 40 60 79 86 78 63 38 25 40 84 56 337 3 29 18 8 4 4 3 360 356 353 349 345 343 340 337 338 339 339 337 334 332 330 327 324 323 321 320 321 320 317 311 302 296 295 292 288 279 263 246 238 239 246 252 252 254 257 251 240 235 234 231 223 213 201 194 197 198 194 192 189 187 188 187 175 164 161 161 156 152 152
83 74 51 31 38 78 95 79 28 323 325 315 276 289 6 22 27 21 19 17 14 9 5 1 358 353 347 343 338 333 333 332 330 330 331 332 330 326 324 326 325 322 319 318 320 319 315 314 314 310 303 289 264 244 235 234 238 244 247 251 256 249 236 232 228 215 205 199 195 198 203 197 186 181 177 172 168 163 156 152 150 147 145 146 147
72 65 41 8 13 73 102 73 325 327 359 6 20 28 25 25 23 13 9 7 3 1 359 356 353 348 344 342 338 333 331 329 327 328 328 329 329 327 327 329 330 329 326 323 324 326 328 330 331 329 327 313 276 243 233 232 232 235 242 249 254 249 235 225 219 208 200 201 206 204 194 181 171 169 168 162 156 152 148 147 144 142 144 145 143
66 62 33 351 354 58 90 35 19 35 38 34 35 31 23 20 15 6 0 356 354 354 352 348 346 344 342 339 335 333 332 330 329 328 325 323 323 324 325 327 328 329 329 328 329 329 327 326 324 323 326 323 290 243 230 229 228 231 240 247 252 251 232 209 207 215 211 202 197 190 181 171 165 163 160 156 151 145 141 140 140 142 145 144 141
56 45 2 323 332 46 61 47 37 40 41 37 33 27 18 12 7 1 354 350 352 352 348 343 340 338 336 335 334 334 333 331 329 327 323 319 318 318 319 321 323 325 325 326 327 326 322 319 316 313 315 316 303 270 244 233 226 228 237 242 245 248 231 206 201 204 197 186 180 175 170 165 160 155 151 148 144 139 137 139 141 142 142 142 141
23 344 317 306 31 67 69 55 34 33 39 37 29 21 14 9 6 359 350 345 345 344 341 338 335 332 332 332 332 331 329 327 325 323 320 316 313 313 314 314 316 320 321 322 325 328 327 324 318 312 306 299 296 294 282 260 243 237 240 241 236 232 225 211 203 196 185 174 169 166 164 160 155 151 147 143 140 136 135 136 138 137 136 138 142
340 313 313 360 89 81 74 54 39 44 45 34 23 19 16 9 0 354 348 344 343 339 332 330 329 326 324 324 325 324 322 320 317 316 316 315 312 310 308 308 312 315 315 317 323 329 332 332 326 318 306 289 284 289 290 278 262 250 244 239 228 219 211 201 194 189 180 171 166 164 162 158 153 150 147 143 141 139 135 134 138 141 142 141 139
317 355 52 75 75 64 49 40 50 55 41 27 28 28 16 1 352 349 347 347 345 338 329 324 321 318 316 318 318 315 311 310 310 311 313 313 313 312 310 307 308 309 307 309 315 322 327 332 331 324 310 289 279 279 279 269 254 243 238 230 217 210 204 193 186 179 171 167 167 162 155 152 151 149 147 144 144 143 139 138 139 141 145 148 143